Regional Weather Roundup
Issued by NWS

Home | Current Version | Previous Version | Graphics & Text | Print | Product List | Glossary On
Versions: 1 2 3 4 5 6 7 8 9 10 11 12 13 14 15 16 17 18 19 20 21 22 23 24 25 26 27 28 29 30 31 32 33 34 35 36 37 38 39 40 41 42 43 44 45 46 47 48 49 50
000
ASUS45 KTFX 300119
RWRMT
MONTANA HOURLY WEATHER ROUNDUP
NATIONAL WEATHER SERVICE GREAT FALLS MT
719 PM MDT MON SEP 29 2014

NOTE: "FAIR" INDICATES FEW OR NO CLOUDS BELOW 12000 FEET WITH NO
SIGNIFICANT WEATHER AND/OR OBSTRUCTIONS TO VISIBILITY.

* THESE STATIONS ARE NOT UNDER NWS QUALITY CONTROL. THEY DO NOT
   REPORT WEATHER SUCH AS PRECIPITATION OR FOG.

MTZ001>007-043-300200-
WEST OF THE DIVIDE
CITY           SKY/WX    TMP DP  RH WIND       PRES   REMARKS
KALISPELL      CLOUDY    57  46  67 S9        29.77F
MISSOULA       LGT RAIN  55  52  90 NW5       29.84S
BUTTE          CLOUDY    55  39  55 SW6       29.86S
MULLAN PASS    FOG       43  43 100 W5        29.90S VSB 1/2
* ESSEX        N/A       55  43  64 N/A        N/A
* LINCOLN      N/A       56  42  60 W4G14      N/A
* LOOKOUT PASS N/A       49  45  86 N6         N/A
* POLSON       N/A       50  49  96 S1         N/A
* RONAN APT    CLOUDY    55  50  83 N/A        N/A
* SEELEY LAKE  N/A       55  44  67 W4G10      N/A
* THOMP F APT  CLOUDY    47  43  86 S7G17      N/A
* YAAK HILL    N/A       61  43  52 S2         N/A
$$

MTZ008-052>055-300200-
SOUTHWEST MONTANA
CITY           SKY/WX    TMP DP  RH WIND       PRES   REMARKS
BOZEMAN        MOCLDY    55  46  72 SE10      29.83S
DILLON         CLOUDY    55  43  64 SW6       29.85R
W YELLOWSTONE  CLOUDY    45  39  80 W3        29.98R
* THREE FORKS  MOCLDY    57  14  18 N/A        N/A
* BOULDER HILL N/A       55  36  49 SW4        N/A
* RAYNOLDS PAS N/A       45  29  54 S14G19     N/A
* WHITEHALL    N/A       60  45  58 SW6        N/A
* WISE RIVER   N/A       54  39  57 NW7G16     N/A
$$

MTZ009>010-012-014-046-048-049-054-300200-
EAST SLOPES AND CENTRAL MONTANA
CITY           SKY/WX    TMP DP  RH WIND       PRES   REMARKS
CUT BANK       MOCLDY    57  43  60 SW20      29.69F
GREAT FALLS    CLOUDY    63  45  52 SW17G23   29.71S
HELENA         CLOUDY    61  48  62 E3        29.76S
MALMSTROM AFB  MOCLDY    61  46  58 S9        29.72F
* CONRAD       PTCLDY    64  52  65 E9         N/A
* DEARBORN     N/A       63  44  50 S9G21      N/A
* EAST GLACIER N/A       52  42  69 W20G29     N/A
* MONARCH      N/A       54  32  43 S8         N/A
* PENDROY      N/A       56  41  57 NW9        N/A
* ROGERS PASS  N/A       52  42  69 SE8G17     N/A
* SAINT MARY   N/A       53  42  66 S11G26     N/A
* SWEET GRASS  N/A       59  45  60 S12        N/A
* WHITE SULPH  N/A       54  42  64 S8         N/A
$$

MTZ011-013-016-021-035-040-045-047-050-051-300200-
NORTH CENTRAL MONTANA
CITY           SKY/WX    TMP DP  RH WIND       PRES   REMARKS
LEWISTOWN      CLOUDY    55  50  83 SE7       29.78S
* CHINOOK      PTCLDY    52  48  86 E12G18    29.75F
* FORT BENTON  PTCLDY    57  50  78 NE7       29.72S
* CHESTER      N/A       58  48  70 SE12G19    N/A
* DENTON       N/A       57  45  64 SE13       N/A
* GEYSER       N/A       56  41  57 S5         N/A
* JUDITH GAP   N/A       50  47  89 SE13G19    N/A
* LOMA         N/A       56  49  77 E20        N/A
$$

MTZ017>020-022>027-061-062-300200-
NORTHEAST MONTANA
CITY           SKY/WX    TMP DP  RH WIND       PRES   REMARKS
GLASGOW        CLOUDY    48  45  89 E15       29.84F
GLENDIVE       CLOUDY    52  48  86 E10       29.91F
JORDAN         CLOUDY    54  48  80 SE10      29.84S
SIDNEY         CLOUDY    52  46  80 SE8       29.94F
WOLF POINT     CLOUDY    52  48  86 E9        29.89F
* BEAVER HILL  N/A       48  46  93 E19G24     N/A
* CIRCLE       N/A       52  49  90 SE4G11     N/A
* LINDSAY DVD  N/A       49  48  96 E12        N/A
* NAVAJO       N/A       46  45  96 SE11G16    N/A
$$

MTZ028>042-056>058-300200-
SOUTHCENTRAL AND SOUTHEAST MONTANA
CITY           SKY/WX    TMP DP  RH WIND       PRES   REMARKS
BAKER          CLOUDY    50  48  93 SE14      29.91F
BILLINGS       MOCLDY    54  48  80 NE6       29.84S
LIVINGSTON     LGT RAIN  54  46  74 S7        29.85R
MILES CITY     MOCLDY    55  48  77 E5        29.85S
* LAUREL APT   MOCLDY    55  48  77 N/A        N/A
* ROUNDUP APT  MOCLDY    55  46  72 N/A        N/A
* ALZADA       N/A       50  50 100 E12        N/A
* HYSHAM       N/A       53  48  83 E5         N/A
* LAME DEER    N/A       52  50  93 NE7        N/A
* REED POINT   N/A       55  46  72 N2         N/A
* ROSCOE HILL  N/A       49  43  80 SW2        N/A
$$

REGIONAL REPORTS...DAKOTAS
CITY           SKY/WX    TMP DP  RH WIND       PRES   REMARKS
WILLISTON      CLOUDY    52  46  80 SE9       29.95F
DICKINSON      CLOUDY    50  46  86 E10       29.95F
BEACH          N/A       48  48 100 SE14      29.94S
CROSBY         MOCLDY    48  46  93 SE14      29.95F
TIOGA          MOCLDY    46  46 100 E10       30.00F
WATFORD CITY   CLOUDY    48  48 100 SE13      29.93F
BISMARCK       CLOUDY    57  48  72 E16       30.00F
GRAND FORKS    FAIR      52  46  80 E3        30.09S
FARGO          CLEAR     55  46  72 SE7       30.07F
BUFFALO SD     PTCLDY    52  48  86 SE8       29.86F
RAPID CITY     FOG       52  52 100 CALM      29.92F VSB 2
$$

REGIONAL REPORTS...WYOMING/IDAHO/WASHINGTON
CITY           SKY/WX    TMP DP  RH WIND       PRES   REMARKS
GILLETTE       MOCLDY    55  48  77 S13       29.84F
SHERIDAN       MOCLDY    55  50  83 N6        29.83S
CODY           MOCLDY    52  46  80 SW6       29.87S
YELLOWSTONE LA MOCLDY    41  34  76 VRB3      30.03S
SALMON         CLOUDY    55  48  77 S3        29.85S
MULLAN PASS    FOG       43  43 100 W5        29.90S VSB 1/2
SAND POINT     CLOUDY    61  46  58 S5        29.79F
SPOKANE        CLOUDY    70  41  35 SW10      29.77S
$$

REGIONAL REPORTS...ALBERTA
CITY           SKY/WX    TMP DP  RH WIND       PRES   REMARKS
CALGARY        PTCLDY    63  43  48 NE3       29.61S
LETHBRIDGE     MOCLDY    64  45  50 W13       29.60F
MEDICINE HAT   MOCLDY    59  48  67 SE12      29.65F
EDMONTON       MOCLDY    57  46  67 SE9       29.58F
WATERTON GATE  N/A       54  43  67 SW18G29    N/A
CARDSTON       N/A       59  45  60 W12G18     N/A
MILK RIVER     N/A       57  46  67 S12        N/A
$$

REGIONAL REPORTS...SASKATCHEWAN
CITY           SKY/WX    TMP DP  RH WIND       PRES   REMARKS
SWIFT CURRENT  CLOUDY    48  45  89 S18G28    29.79F
MOOSE JAW      MOCLDY    52  45  77 SE14      29.88F
REGINA         CLOUDY    50  43  77 SE20G25   29.92F
VAL MARIE      N/A       48  45  89 SE15G21    N/A
ASSINIBOIA     N/A       48  43  83 SE9        N/A
CORONACH       N/A       46  45  96 SE16G25    N/A

$$



USA.gov is the U.S. government's official web portal to all federal, state and local government web resources and services.